Weather History for Shreveport, LA

Change the Weather History Date:

Monday, May 6, 2013

  Actual Average Record
Temperature  
Mean Temperature 64 °F 71 °F  
Max Temperature 79 °F 82 °F 96 °F (1875)
Min Temperature 48 °F 60 °F 47 °F (1957)
Degree Days  
Heating Degree Days 1 0  
Month to date heating degree days 38 5  
Since 1 July heating degree days 2081 2224  
Cooling Degree Days 0 6  
Month to date cooling degree days 6 34  
Year to date cooling degree days 125 169  
Growing Degree Days 13 (Base 50)    
Moisture  
Dew Point 48 °F    
Average Humidity 61    
Maximum Humidity 86    
Minimum Humidity 35    
Precipitation  
Precipitation 0.00 in 0.17 in 4.65 in (1978)
Month to date precipitation 0.13 0.99  
Year to date precipitation 14.33 18.27  
Snow  
Snow 0.00 in - - ()
Month to date snowfall 0.0  
Since 1 July snowfall 0.1  
Snow Depth 0.00 in    
Sea Level Pressure  
Sea Level Pressure 30.00 in    
Wind  
Wind Speed 8 mph (NW)    
Max Wind Speed 17 mph    
Max Gust Speed 23 mph    
Visibility 10 miles    
Events      
T = Trace of Precipitation, MM = Missing Value Source: NWS Daily Summary

Daily Weather History Graph

Daily Weather History Graph

Search for Another Location

Airport:

Trip Planner

Search our weather history database for the weather conditions in past years. The results will help you decide how hot, cold, wet, or windy it might be!

Date:

Astronomy

May. 06, 2013 Rise Set
Actual Time 6:23 AM CDT 8:00 PM CDT
Civil Twilight 5:57 AM CDT 8:26 PM CDT
Nautical Twilight 5:25 AM CDT 8:58 PM CDT
Astronomical Twilight 4:52 AM CDT 9:32 PM CDT
Moon 4:15 AM CDT (5/6) 5:09 PM CDT (5/6)
Length of Visible Light 14h 29m
Length of Day
13h 36m
Waning Crescent, 11% of the Moon is Illuminated
May 6
Waning Crescent
May 9
New
May 17
First Quarter
May 24
Full
May 31
Last Quarter

Hourly Weather History & Observations

Time (CDT) Temp. Dew Point Humidity Pressure Visibility Wind Dir Wind Speed Gust Speed Precip Events Conditions
12:56 AM 51.1 °F 44.1 °F 77% 30.04 in 10.0 mi WNW 4.6 mph - N/A   Partly Cloudy
1:56 AM 50.0 °F 44.1 °F 80% 30.02 in 10.0 mi WNW 4.6 mph - N/A   Partly Cloudy
2:56 AM 50.0 °F 44.1 °F 80% 30.01 in 10.0 mi WNW 5.8 mph - N/A   Clear
3:56 AM 48.9 °F 44.1 °F 83% 30.01 in 10.0 mi WNW 5.8 mph - N/A   Clear
4:56 AM 48.0 °F 44.1 °F 86% 30.02 in 10.0 mi WNW 5.8 mph - N/A   Clear
5:56 AM 48.9 °F 44.1 °F 83% 30.03 in 10.0 mi WNW 5.8 mph - N/A   Clear
6:56 AM 50.0 °F 45.0 °F 83% 30.04 in 10.0 mi WNW 5.8 mph - N/A   Clear
7:56 AM 54.0 °F 46.9 °F 77% 30.06 in 10.0 mi WNW 12.7 mph - N/A   Clear
1:56 PM 75.9 °F 48.9 °F 38% 30.00 in 10.0 mi NNW 12.7 mph - N/A   Scattered Clouds
2:56 PM 78.1 °F 50.0 °F 37% 29.99 in 10.0 mi NNW 11.5 mph - N/A   Scattered Clouds
3:56 PM 78.1 °F 48.9 °F 36% 29.96 in 10.0 mi NNW 9.2 mph - N/A   Scattered Clouds
4:56 PM 78.1 °F 48.0 °F 35% 29.94 in 10.0 mi NNW 10.4 mph - N/A   Mostly Cloudy
5:56 PM 77.0 °F 48.9 °F 37% 29.94 in 10.0 mi NNW 11.5 mph - N/A   Mostly Cloudy
6:56 PM 75.0 °F 50.0 °F 41% 29.95 in 10.0 mi NW 6.9 mph - N/A   Mostly Cloudy
7:56 PM 71.1 °F 52.0 °F 51% 29.96 in 10.0 mi West 6.9 mph - N/A   Mostly Cloudy
8:56 PM 66.9 °F 53.1 °F 61% 29.98 in 10.0 mi West 6.9 mph - N/A   Mostly Cloudy
9:56 PM 68.0 °F 52.0 °F 56% 29.99 in 10.0 mi WNW 8.1 mph - N/A   Overcast
10:56 PM 64.4 °F 51.8 °F 64% 30.00 in 10.0 mi WNW 5.8 mph - N/A   Overcast
11:56 PM 64.0 °F 54.0 °F 70% 30.00 in 10.0 mi NW 5.8 mph - N/A   Overcast